#timestamp,LO_Frequency,Hit,StdDev 
1666926015.2,286047001.6,N
1666926035.1,286047001.9,N
1666926036.0,286047001.9,N
1666926055.8,286047000.1,N
1666926075.6,286047003.9,N
1666926095.5,286046999.9,N
1666926115.3,286047000.1,N
1666926135.1,286046999.7,N
1666926155.9,286047003.8,N
1666926175.7,286047004.0,N
1666926195.6,286047003.3,N
1666926215.4,286047011.9,Y
1666926235.2,286047003.7,P
1666926255.1,286047003.6,P
1666926256.0,286047003.6,P
1666926275.8,286047006.0,Y
1666926295.7,286046998.1,P
1666926315.5,286046999.1,N
1666926335.3,286046997.1,N
1666926355.2,286046999.4,N
1666926375.0,286046999.1,N
1666926375.9,286046999.1,N
1666926395.7,286046998.8,N
1666926415.6,286046998.2,N
1666926435.4,286047000.8,N
1666926455.3,286047000.1,N
1666926475.1,286047002.7,N
1666926476.0,286047002.7,N
1666926495.8,286047001.0,N
1666926515.7,286047000.5,N
1666926535.5,286047000.9,N
1666926555.3,286046998.6,N
1666926575.2,286046999.4,N
1666926595.0,286046996.2,N
1666926595.9,286046996.2,N
1666926615.8,286046993.5,Y
1666926635.6,286046995.1,P
1666926655.4,286046999.2,N
1666926675.3,286046998.6,N
1666926695.1,286047000.4,N
1666926715.8,286047000.5,N
1666926735.7,286047000.9,N
1666926755.5,286047000.5,N
1666926775.4,286047000.6,N
1666926795.2,286047000.4,N
1666926815.0,286046999.8,N
1666926815.9,286046999.8,N
1666926835.8,286047000.9,N
1666926855.6,286047001.1,N
1666926875.4,286047001.1,N
1666926895.3,286046999.0,N
1666926915.1,286047000.8,N
1666926935.9,286047000.5,N
1666926955.7,286047000.6,N
1666926975.5,286047001.2,N
1666926995.4,286046998.2,N
1666927015.2,286046998.2,N
1666927035.0,286047000.4,N
1666927035.9,286047000.4,N
1666927055.8,286047000.4,N
1666927075.6,286046999.9,N
1666927095.5,286046999.4,N
1666927115.3,286046999.3,N
1666927135.1,286046997.6,N
1666927155.9,286046996.6,N
1666927175.7,286046996.8,N
1666927195.5,286046997.0,N
1666927215.4,286046995.7,Y
1666927235.2,286046993.7,P
1666927255.1,286046993.8,N
1666927256.0,286046993.8,N
1666927275.8,286046997.5,N
1666927295.6,286046997.5,N
1666927315.5,286046995.1,N
1666927335.3,286046995.1,N
1666927355.2,286046996.1,N
1666927375.9,286046997.0,N
1666927395.7,286046996.6,N
1666927415.6,286046996.8,N
1666927435.4,286046996.9,N
1666927455.2,286046997.1,N
1666927475.1,286046998.9,N
1666927476.0,286046998.9,N
1666927495.8,286046998.2,N
1666927515.7,286046999.0,N
1666927535.5,286046999.5,N
1666927555.3,286046998.8,N
1666927575.2,286046998.5,N
1666927595.0,286046999.3,N
1666927595.9,286046999.3,N
1666927615.8,286047001.2,N
1666927635.6,286046998.6,N
1666927655.4,286047000.8,N
1666927675.3,286047000.8,N
1666927695.1,286047000.1,N
1666927715.9,286047000.2,N
1666927735.7,286047000.1,N
1666927755.5,286047000.3,N
1666927775.4,286047002.3,N
1666927795.2,286047000.1,N
1666927815.0,286047002.6,N
1666927815.9,286047002.6,N
1666927835.8,286047002.4,N
1666927855.6,286047000.4,N
1666927875.5,286047000.6,N
1666927895.3,286047001.0,N
1666927915.1,286046998.2,N
1666927935.9,286047000.1,N
1666927955.7,286047002.3,N
1666927975.6,286047001.7,N
1666927995.4,286047001.6,N
1666928015.2,286046998.3,N
1666928035.1,286046998.1,N
1666928036.0,286046998.1,N
1666928055.8,286047000.8,N
1666928075.7,286046998.5,N
1666928095.5,286047000.9,N
1666928115.3,286047002.8,N
1666928135.2,286047000.4,N
1666928155.0,286047001.2,N
1666928155.9,286047001.2,N
1666928175.8,286046999.6,N
1666928195.6,286046998.1,N
1666928215.5,286047000.2,N
1666928235.3,286046999.0,N
1666928255.1,286046997.7,N
1666928275.9,286046998.4,N
1666928295.7,286046999.3,N
1666928315.6,286046999.3,N
1666928335.4,286046996.9,N
1666928355.2,286046999.0,N
1666928375.1,286046999.4,N
1666928376.0,286046999.4,N
1666928395.8,286046999.2,N
1666928415.7,286046996.9,N
1666928435.5,286046999.2,N
1666928455.3,286046997.4,N
1666928475.2,286046994.9,Y
1666928495.0,286046998.9,P
1666928495.9,286046998.9,P
1666928515.7,286046998.5,P
1666928535.6,286047001.1,N
1666928555.4,286046998.6,N
1666928575.3,286046999.7,N
1666928595.1,286046999.9,N
1666928615.8,286047000.1,N
1666928635.7,286047002.3,N
1666928655.5,286047000.7,N
1666928675.4,286046997.1,N
1666928695.2,286046999.0,N
1666928715.0,286047000.8,N
1666928715.9,286047000.8,N
1666928735.8,286047000.5,N
1666928755.6,286047000.5,N
1666928775.5,286047002.3,N
1666928795.3,286047002.8,N
1666928815.1,286047000.2,N
1666928835.9,286046999.7,N
1666928855.7,286046999.8,N
1666928875.5,286047001.7,N
1666928895.4,286047004.2,Y
1666928915.2,286047004.0,P
1666928935.1,286047003.6,N
1666928936.0,286047003.6,N
1666928955.8,286047004.2,N
1666928975.6,286047002.1,N
1666928995.5,286047004.3,Y
1666929015.3,286047000.8,P
1666929035.1,286047000.8,N
1666929055.9,286047000.0,N
1666929075.7,286047001.1,N
1666929095.6,286046999.8,N
1666929115.4,286046998.6,N
1666929135.2,286046998.1,N
1666929155.1,286046996.9,N
1666929156.0,286046996.9,N
1666929175.8,286046996.7,N
1666929195.6,286046997.1,N
1666929215.5,286046997.4,N
1666929235.3,286046999.2,N
1666929255.2,286047001.2,N
1666929275.9,286047000.9,N
1666929295.7,286047000.2,N
1666929315.6,286046999.0,N
1666929335.4,286046999.1,N
1666929355.2,286047001.1,N
1666929375.1,286046999.4,N
1666929376.0,286046999.4,N
1666929395.8,286047002.4,N
1666929415.7,286047001.2,N
1666929435.5,286046997.0,N
1666929455.3,286046996.9,N
1666929475.2,286046997.2,N
1666929495.0,286046999.1,N
1666929495.9,286046999.1,N
1666929515.8,286046997.8,N
1666929535.6,286046995.3,N
1666929555.4,286046997.5,N
1666929575.3,286046995.1,N
1666929595.1,286046997.8,N
